Location: Byszew
(52.1813°N, 19.2693°E)
Time: 14:26:55
(UTC+00:00)

Cosmos 2242 Rocket - Pass Details

Date: 03 March 2021
Orbit: 617 x 652 km, 82.5° (Epoch: 13 April)

Event Time Altitude Azimuth Distance (km) Brightness Sun altitude
Rises 17:26:10 0° 352° (N) 2,968 7.2 -10.0°
Reaches altitude 10° 17:28:30 10° 358° (N) 2,048 6.3 -10.3°
Maximum altitude 17:32:55 50° 74° (ENE) 820 3.8 -11.0°
Drops below altitude 10° 17:37:16 10° 150° (SSE) 2,010 5.9 -11.7°
Sets 17:39:32 0° 156° (SSE) 2,907 6.7 -12.0°
